Location: Ladrillo (historical)
(32.8195°N, 117.2231°W)
Time: 23:13:15
(UTC+00:00)

X-37B - Pass Details

Date: 28 January 2021
Orbit: 383 x 391 km, 45.0° (Epoch: 10 February)

Event Time Altitude Azimuth Distance (km) Brightness Sun altitude
Rises 02:24:08 0° 315° (NW) 2,273 5.0 -14.3°
Reaches altitude 10° 02:27:03 10° 344° (NNW) 1,419 3.5 -14.9°
Enters shadow 02:28:36 13° 13° (NNE) 1,246 2.9 -15.2°
